Wind_Speed
30 28 37 39 35 30 30 32 34 30 27 29 32 36 25 23 28 30 36 37 41 32 30 17 16 10 7 5 8 11 13 12 20 20 28 27 23 25 25 27 26 27 28 27
26 32 27 31 33 29 34 25 27 27 34 28 35 36 25 24 27 29 33 38 32 30 38 26 30 19 19 17 17 19 22 22 27 30 30 30 27 27 27 27 28 28 28 24
26 27 26 27 31 31 34 32 26 29 25 29 29 26 26 31 30 27 27 22 29 25 39 36 33 29 15 17 24 26 29 31 34 36 38 38 31 28 29 29 28 30 28 28
25 22 27 31 31 31 33 30 32 30 28 22 27 14 28 30 28 32 21 27 28 21 23 37 34 26 19 23 21 21 21 22 24 27 28 32 34 32 31 32 33 31 30 32
28 24 27 30 32 29 35 28 35 31 25 25 30 26 26 28 29 25 25 33 27 27 20 37 32 28 34 26 19 18 20 19 19 21 23 26 30 31 32 34 35 36 32 32
22 23 23 24 26 30 26 30 19 30 24 12 26 31 30 23 28 25 23 25 28 27 28 30 33 33 32 23 20 21 23 23 23 24 25 26 27 31 34 34 36 37 36 38
27 26 28 23 22 24 22 17 6 5 6 5 26 24 28 25 26 26 31 20 34 37 29 28 29 29 25 17 17 17 19 20 23 26 28 28 30 30 30 34 36 40 37 35
29 21 30 25 30 27 26 24 16 6 4 7 19 25 36 32 25 31 35 30 32 30 26 25 24 22 26 21 19 21 22 23 23 23 24 25 27 31 32 29 33 37 40 41
25 26 24 24 27 27 27 29 21 13 5 2 5 6 12 28 34 35 34 43 34 34 27 21 21 20 20 18 17 18 19 20 20 20 20 20 20 22 24 24 23 27 30 32
13 19 20 25 23 27 20 25 24 11 4 2 5 11 7 21 35 35 35 43 38 34 24 12 8 11 14 18 24 22 19 15 16 17 18 20 21 22 22 23 23 25 25 25
29 8 18 20 27 24 19 24 10 7 14 4 1 9 8 17 32 36 35 30 26 25 17 11 12 14 17 22 26 22 18 20 25 24 24 24 26 28 30 32 33 35 35 36
27 6 12 22 20 22 24 29 27 13 6 7 5 8 13 15 24 29 31 31 30 28 19 15 18 18 18 21 27 31 33 31 27 29 30 27 27 29 31 33 35 38 42 45
24 15 7 17 13 20 23 16 16 22 19 7 13 7 9 23 25 20 27 23 15 17 23 20 17 20 21 23 29 31 34 32 33 29 27 26 28 30 30 31 33 35 37 39
25 22 23 10 9 17 10 16 12 7 2 2 8 17 17 22 29 24 24 20 19 14 13 14 16 21 25 23 25 30 34 37 37 38 35 33 33 33 35 35 36 37 38 39
17 17 25 18 13 16 11 10 14 7 4 6 8 7 13 15 20 23 15 11 15 17 10 10 14 18 22 26 31 33 37 38 41 39 40 37 32 32 34 35 36 38 40 41
18 16 15 15 5 17 12 10 7 4 4 2 2 7 11 15 11 8 13 14 16 19 19 19 17 20 22 23 28 32 36 38 40 45 49 47 40 37 38 38 39 41 43 45
22 23 20 8 10 11 10 11 5 8 7 1 1 6 18 13 9 9 9 9 10 10 14 20 23 25 26 29 33 36 37 40 46 49 49 49 44 42 42 43 44 43 43 44
22 19 13 9 11 3 1 5 14 13 9 7 7 12 16 15 13 12 9 14 17 18 20 24 28 31 34 35 36 38 41 45 46 50 51 47 42 43 43 42 42 44 47 48
22 26 7 7 9 9 9 8 12 18 17 15 20 17 16 12 14 11 12 15 18 21 24 27 30 31 34 39 44 47 45 47 50 46 46 43 42 43 43 44 45 47 49 48
19 22 15 17 9 6 14 14 15 16 14 10 12 13 12 14 11 12 17 21 24 25 27 28 32 38 40 41 37 40 46 45 46 44 44 45 45 44 45 46 46 46 45 42
22 24 23 15 6 11 12 16 17 10 8 12 16 15 15 12 12 15 20 23 26 28 26 24 21 23 30 34 38 43 46 48 48 49 48 46 45 45 45 43 42 39 35 33
20 14 15 8 7 5 12 11 11 16 17 18 20 19 19 18 20 22 25 29 29 30 28 29 31 35 39 43 45 47 50 50 48 46 44 44 43 41 38 37 30 29 32 35
10 12 12 6 11 11 15 7 14 16 16 16 17 17 19 19 21 23 22 24 26 29 33 34 37 40 44 45 46 45 44 43 43 42 40 39 36 35 31 26 26 31 35 40
16 12 18 15 15 10 10 11 12 14 15 15 17 18 20 20 20 22 24 28 29 30 30 29 29 32 35 38 39 41 40 39 36 34 34 33 30 25 24 27 29 33 37 39
15 14 16 17 20 17 13 10 8 8 8 13 12 12 14 17 20 21 23 20 21 23 27 30 31 32 33 35 36 38 38 35 32 30 28 22 23 21 24 25 29 31 33 33
11 16 18 24 19 13 16 14 12 10 11 8 10 14 16 17 16 16 19 21 23 26 28 29 30 32 35 37 36 33 29 27 24 18 17 16 19 22 25 23 24 29 28 29
Wind_Direction
176 187 200 193 204 219 220 221 228 223 233 230 231 233 242 254 256 256 248 240 248 240 225 251 226 233 212 205 257 264 263 261 266 260 268 272 276 276 278 277 282 285 289 280
175 205 206 196 202 218 222 234 223 235 236 230 238 240 248 248 258 249 245 241 232 235 215 234 247 233 234 224 227 235 244 250 260 268 270 273 272 271 271 273 278 285 292 295
193 201 201 203 205 222 230 230 230 223 232 234 206 227 233 237 244 229 247 220 212 235 212 225 240 240 249 248 243 243 251 259 262 260 265 268 263 262 266 273 274 278 286 295
197 196 208 206 218 224 229 224 228 234 248 192 207 221 221 247 245 227 242 203 217 207 217 226 244 238 232 262 254 256 256 258 252 249 245 246 251 256 263 267 265 267 265 270
199 206 208 215 214 217 231 231 227 234 232 198 211 216 237 239 236 224 231 209 208 208 220 214 239 252 258 263 263 268 269 269 263 256 255 254 255 257 264 269 263 260 264 268
209 200 207 220 216 222 225 225 217 236 209 211 208 212 245 233 227 209 178 200 211 204 218 227 236 247 259 262 268 270 269 270 268 266 264 265 263 263 264 266 267 264 270 279
216 220 215 210 222 219 224 228 2 324 227 187 225 221 225 235 236 223 184 200 194 201 206 213 228 248 259 262 266 274 275 270 265 264 262 260 259 264 269 267 268 270 270 270
210 221 224 210 208 219 212 184 166 242 203 239 244 240 250 244 245 225 192 181 185 188 202 225 244 255 271 271 267 269 269 269 266 266 267 268 266 267 269 267 263 264 266 269
207 223 210 206 205 217 218 217 206 190 359 317 335 319 218 231 224 204 194 196 201 206 213 243 245 256 260 268 278 286 281 273 270 273 273 274 276 273 272 272 271 270 272 272
199 224 214 208 209 208 216 213 202 181 162 283 310 261 152 175 176 187 187 199 206 219 216 207 239 258 276 289 291 292 279 271 278 278 279 276 276 283 284 282 280 277 277 279
227 223 204 213 205 207 211 230 210 234 200 132 97 268 339 163 179 180 181 187 181 171 170 198 245 273 277 276 285 289 275 290 289 281 274 275 277 277 277 278 280 279 277 274
225 190 229 217 204 212 212 216 236 233 253 173 137 250 228 174 166 174 174 182 186 194 195 190 214 230 251 274 286 292 292 291 284 286 292 295 293 289 286 283 281 279 277 277
202 205 150 237 207 205 221 228 229 235 247 146 165 183 163 203 161 150 167 167 181 197 194 208 233 247 254 260 270 272 277 287 291 293 293 294 289 286 284 283 283 283 282 281
192 207 198 226 205 213 242 237 219 207 199 94 359 148 193 188 197 181 166 200 198 206 231 251 244 250 258 261 271 280 285 289 292 298 305 306 300 292 290 290 289 289 288 287
170 182 192 215 234 200 224 232 242 258 249 64 76 83 167 186 173 179 179 164 170 178 195 239 256 258 258 265 270 271 279 285 290 300 302 299 289 291 289 288 288 288 288 289
164 127 144 172 112 215 264 266 212 169 145 283 238 117 84 115 131 160 195 216 228 236 262 271 266 264 266 263 264 267 272 279 286 294 300 298 295 291 289 291 291 293 296 295
170 151 151 127 153 149 217 231 219 210 201 190 349 211 138 139 158 165 190 204 220 206 210 231 243 250 255 256 258 264 270 278 288 295 292 294 294 291 293 297 301 302 299 295
186 176 153 125 164 109 76 246 192 204 188 161 150 147 157 161 168 182 197 217 228 231 233 239 244 247 253 259 267 277 283 288 290 291 296 299 295 297 301 303 299 295 294 293
212 209 175 138 131 123 187 170 166 177 109 130 154 160 164 175 192 187 220 243 250 251 253 255 265 274 276 278 282 284 283 285 289 294 302 305 305 305 302 297 296 295 294 295
192 213 210 159 157 184 171 161 141 159 125 127 159 161 171 190 200 228 249 258 262 265 269 270 273 276 277 275 275 277 284 288 294 301 305 307 306 300 298 299 298 299 301 301
157 157 180 164 116 111 164 179 163 161 158 183 192 197 205 212 221 246 268 275 281 286 291 287 283 277 271 272 277 282 287 293 298 301 304 302 300 301 301 301 305 304 302 301
146 135 161 156 119 158 142 176 170 159 169 201 217 230 239 243 246 253 263 271 277 277 270 268 271 272 278 284 287 288 289 294 298 297 298 300 301 302 304 306 308 308 311 311
144 160 150 155 135 147 167 184 163 172 193 204 228 242 255 265 270 269 266 266 266 271 275 281 282 283 287 292 294 293 290 291 294 298 299 299 302 304 305 306 312 312 310 306
142 151 130 132 142 159 173 179 192 202 218 237 254 263 267 269 273 281 282 281 287 289 293 296 296 294 293 293 294 295 296 298 302 301 301 303 306 309 308 311 307 312 313 311
157 148 169 145 151 158 161 212 233 247 268 281 276 276 276 283 287 292 293 306 309 308 306 308 306 305 304 303 302 299 296 300 301 303 305 310 309 308 312 312 314 318 320 320
143 160 165 153 172 196 192 216 232 260 309 300 275 284 292 299 305 311 315 317 317 316 316 314 314 313 310 305 303 300 299 301 306 312 313 318 318 311 314 317 321 330 332 327
Height
3069 3074 3072 3079 3086 3094 3099 3103 3105 3108 3114 3119 3119 3122 3127 3129 3130 3131 3134 3138 3139 3142 3152 3149 3151 3151 3148 3148 3145 3149 3150 3151 3156 3158 3165 3167 3166 3165 3165 3167 3165 3163 3160 3160
3071 3070 3077 3082 3086 3090 3094 3098 3101 3107 3109 3114 3117 3120 3123 3124 3124 3124 3126 3128 3134 3137 3145 3143 3142 3144 3146 3146 3148 3149 3152 3155 3155 3158 3160 3160 3161 3159 3161 3162 3161 3159 3158 3158
3066 3070 3076 3080 3083 3088 3089 3094 3098 3102 3105 3109 3112 3117 3117 3120 3119 3118 3119 3122 3129 3133 3138 3139 3135 3137 3141 3140 3142 3147 3150 3151 3152 3152 3153 3153 3152 3154 3156 3156 3155 3153 3154 3153
3066 3070 3073 3077 3080 3084 3085 3091 3095 3098 3101 3105 3109 3109 3112 3112 3113 3113 3114 3116 3122 3127 3130 3132 3130 3135 3136 3138 3139 3142 3144 3144 3145 3147 3147 3147 3148 3148 3150 3148 3146 3147 3145 3145
3061 3066 3070 3071 3075 3081 3083 3088 3092 3091 3097 3099 3103 3106 3105 3109 3107 3108 3110 3113 3118 3124 3124 3125 3125 3128 3131 3132 3135 3136 3137 3138 3139 3141 3141 3141 3142 3142 3141 3140 3139 3139 3139 3138
3060 3063 3068 3069 3072 3077 3081 3085 3086 3088 3090 3094 3099 3098 3096 3100 3100 3104 3106 3111 3116 3120 3119 3120 3122 3122 3124 3129 3129 3130 3131 3131 3133 3134 3134 3134 3134 3133 3133 3133 3133 3133 3131 3129
3058 3060 3064 3067 3069 3072 3076 3078 3087 3088 3084 3088 3090 3091 3091 3093 3095 3099 3102 3109 3111 3114 3115 3115 3116 3119 3122 3123 3124 3125 3126 3126 3126 3127 3127 3127 3127 3126 3126 3127 3128 3127 3128 3127
3055 3057 3058 3062 3066 3068 3073 3078 3085 3092 3087 3085 3085 3084 3083 3087 3090 3094 3101 3106 3108 3110 3112 3113 3114 3115 3117 3119 3119 3119 3121 3121 3121 3120 3120 3120 3120 3121 3120 3119 3119 3116 3117 3117
3051 3052 3054 3058 3063 3067 3070 3072 3077 3081 3083 3084 3083 3080 3079 3078 3082 3089 3096 3101 3105 3108 3111 3112 3113 3113 3116 3114 3113 3115 3115 3114 3113 3114 3115 3114 3114 3115 3113 3112 3112 3109 3107 3106
3048 3052 3052 3056 3061 3063 3067 3073 3076 3079 3085 3087 3085 3090 3080 3076 3078 3085 3091 3098 3102 3106 3108 3109 3109 3109 3110 3110 3109 3108 3109 3108 3108 3107 3108 3108 3107 3106 3106 3106 3105 3104 3101 3098
3046 3051 3056 3054 3055 3059 3063 3065 3068 3073 3075 3084 3093 3088 3085 3078 3080 3082 3090 3096 3100 3105 3109 3109 3108 3107 3106 3105 3103 3103 3105 3104 3102 3101 3101 3100 3099 3099 3099 3099 3096 3094 3093 3093
3042 3046 3049 3051 3053 3058 3062 3065 3068 3069 3073 3074 3082 3083 3082 3082 3084 3087 3090 3096 3101 3106 3108 3108 3108 3107 3106 3102 3100 3098 3098 3098 3097 3095 3092 3092 3091 3090 3089 3087 3085 3083 3081 3080
3039 3041 3047 3048 3051 3054 3057 3061 3063 3066 3068 3069 3078 3078 3078 3083 3085 3089 3091 3094 3101 3104 3107 3108 3106 3106 3104 3101 3099 3098 3095 3092 3090 3089 3089 3088 3086 3084 3082 3079 3077 3074 3071 3069
3033 3037 3043 3050 3050 3055 3057 3059 3062 3063 3066 3067 3070 3073 3076 3080 3085 3087 3089 3092 3097 3100 3104 3104 3102 3102 3099 3096 3093 3091 3089 3086 3086 3084 3083 3079 3077 3074 3071 3069 3066 3063 3060 3057
3031 3036 3042 3047 3052 3053 3055 3058 3062 3063 3066 3070 3074 3074 3078 3079 3080 3085 3089 3092 3097 3099 3099 3099 3098 3097 3095 3093 3090 3087 3083 3081 3079 3078 3077 3074 3070 3067 3064 3060 3057 3054 3051 3048
3028 3038 3041 3051 3052 3049 3057 3058 3060 3063 3065 3066 3072 3075 3076 3078 3082 3086 3091 3090 3093 3095 3095 3093 3091 3089 3088 3087 3085 3081 3078 3074 3071 3069 3067 3065 3061 3058 3055 3050 3046 3043 3040 3037
3027 3034 3042 3048 3053 3056 3063 3059 3059 3063 3067 3069 3070 3073 3076 3081 3085 3085 3085 3085 3085 3087 3087 3086 3085 3084 3083 3081 3078 3075 3072 3069 3066 3062 3058 3054 3051 3046 3043 3039 3036 3032 3027 3022
3026 3032 3038 3045 3050 3056 3056 3056 3058 3064 3065 3070 3070 3072 3075 3075 3078 3078 3079 3080 3081 3083 3083 3083 3081 3079 3077 3075 3072 3069 3064 3060 3055 3051 3047 3042 3038 3035 3031 3027 3023 3018 3013 3008
3025 3031 3037 3041 3048 3051 3055 3057 3058 3057 3065 3068 3065 3068 3071 3072 3072 3076 3077 3077 3079 3080 3080 3079 3078 3076 3073 3068 3064 3058 3054 3051 3045 3042 3038 3033 3029 3024 3020 3014 3009 3005 2998 2994
3026 3029 3036 3047 3048 3053 3055 3055 3056 3059 3063 3065 3064 3065 3067 3067 3070 3072 3073 3073 3073 3074 3074 3073 3071 3068 3063 3056 3050 3046 3042 3039 3036 3032 3028 3024 3019 3013 3007 3001 2996 2991 2985 2981
3019 3029 3036 3041 3043 3050 3052 3054 3055 3058 3067 3063 3062 3063 3066 3067 3069 3069 3068 3068 3068 3067 3064 3061 3058 3055 3049 3046 3042 3038 3033 3030 3026 3022 3018 3012 3006 3001 2995 2990 2985 2980 2975 2971
3022 3027 3034 3038 3042 3049 3049 3053 3055 3058 3059 3059 3061 3062 3064 3066 3067 3067 3066 3063 3061 3058 3056 3053 3051 3046 3041 3037 3034 3030 3025 3021 3017 3011 3006 3001 2996 2990 2985 2981 2977 2971 2967 2962
3026 3030 3033 3037 3040 3044 3048 3051 3053 3054 3056 3057 3059 3060 3061 3061 3060 3059 3058 3056 3054 3051 3047 3046 3043 3040 3034 3029 3024 3020 3014 3009 3004 3000 2995 2990 2986 2981 2977 2973 2969 2965 2959 2953
3027 3030 3033 3036 3043 3044 3048 3049 3051 3053 3054 3055 3056 3056 3056 3056 3055 3054 3052 3048 3048 3044 3041 3038 3034 3030 3024 3019 3012 3006 3001 2997 2994 2989 2985 2982 2978 2974 2970 2967 2962 2957 2951 2944
3028 3032 3033 3037 3042 3043 3046 3047 3050 3052 3053 3053 3054 3053 3052 3052 3050 3048 3043 3043 3041 3037 3032 3028 3023 3018 3012 3007 3001 2996 2991 2988 2985 2981 2977 2974 2971 2968 2965 2961 2956 2951 2944 2935
3028 3030 3031 3035 3039 3042 3044 3045 3047 3049 3051 3050 3049 3049 3047 3046 3044 3042 3039 3036 3033 3028 3024 3019 3013 3007 3002 2996 2991 2986 2982 2979 2977 2974 2972 2969 2966 2962 2959 2956 2953 2944 2939 2933